STARLINK-1935 (46771 NORAD) Tracking and Keplerian Element Data

This shows tracking and keplerian element data for the satellite.

Feedback or suggestion? Click here.




ElementValue
Catalog46771
NameSTARLINK-1935
Epoch Orbit181
Epoch Day20.91667824
Epoch Year2021
RAAN108.3013
Inclination53.0547
Eccentricity0.0001211
Argument of Perigee90.3303
Mean Anonmoly282.1243
Mean Motion15.06408215
Decay Rate-0.00034081
L11 46771U 20074AJ 21020.91667824 -.00034081 00000-0 -22796-2 0 9992
L22 46771 53.0547 108.3013 0001211 90.3303 282.1243 15.06408215 1814

Live tracking and technical data element details for STARLINK-1935 (NORAD 46771). STARLINK-1935 can be tracked NOW for your location showing map with azimuth and elevation plus other details from your city location.

Track the satellite on the map from your city or location and see movement details for azimuth, elevation, latitude, longitude, range, height, and movement on the map or in text.







IsCatalogInMostPopularTable: catalog: 46771, numindb: 35
Update: records affected: 1



GetName: 46771 STARLINK-1935

Hit Count: updated at: Fri, 22 Jan 2021 20:00:18 GMT